Location: Huntsville
(34.7300°N, 86.5860°W)
Time: 12:51:36
(UTC-05:00)

Daily predictions for brighter satellites

Satellite Brightness Start Highest point End
(mag) Time Altitude Azimuth Time Altitude Azimuth Time Altitude Azimuth
Cosmos 1869 Rocket 3.7 19:51:27 10° N 19:55:57 89° WNW 20:00:24 10° S
Cosmos 1634 Rocket 4.0 19:50:40 10° S 19:56:54 68° E 20:03:11 10° NNE
Cosmos 1892 3.8 19:55:58 10° NNW 19:59:39 48° W 20:03:21 10° SSW
Cosmos 2263 Rocket 3.1 19:55:08 10° N 20:00:01 30° ENE 20:04:52 10° ESE
Cosmos 1092 Rocket 4.1 19:54:05 10° N 20:00:28 80° E 20:06:48 10° S
Spot 2 Rocket 3.7 19:56:24 10° SSE 20:01:21 55° ENE 20:06:19 10° N
Cosmos 1503 Rocket 4.2 19:59:08 10° N 20:04:16 55° ENE 20:09:20 10° SSE
USA 186 2.6 20:03:15 10° SE 20:05:39 27° ENE 20:08:11 10° NNE
Resurs 1-3 3.7 20:02:59 10° SSE 20:07:17 58° ENE 20:11:36 10° N
Cosmos 2322 Rocket 2.4 20:02:48 10° SSW 20:08:23 78° WNW 20:14:02 10° NNE
Meteor 2-20 4.4 20:03:32 10° N 20:09:40 74° E 20:15:48 10° SSE
Cosmos 1354 Rocket 4.1 20:05:35 10° N 20:10:50 65° ENE 20:16:01 10° SSE
Atlas Centaur 2 2.8 20:05:55 10° WSW 20:11:54 56° S 20:19:21 10° E
Cosmos 220 Rocket 4.0 20:11:15 10° NNW 20:15:43 85° ENE 20:20:08 10° SSE
H-2A R/B 3.0 20:12:10 10° S 20:16:03 71° W 20:19:55 10° NNW
Cosmos 2360 Rocket 2.5 20:10:51 10° S 20:16:09 43° ESE 20:21:28 10° NE
COSMOS 2428 4.0 20:14:45 10° SE 20:18:33 19° E 20:22:21 10° ENE
Cosmos 1825 2.2 20:15:16 10° N 20:19:02 58° E 20:22:46 10° SSE
Intercosmos 25 Rocket 3.0 20:16:38 10° S 20:19:46 67° E 20:23:39 10° NNE
Envisat 3.7 20:17:09 11° SE 20:21:36 36° ENE 20:26:13 10° N
Cosmos 1655 Rocket 4.2 20:16:30 10° N 20:22:45 54° E 20:28:54 10° SSE
Cosmos 1869 4.3 20:19:31 10° SSW 20:23:19 49° W 20:27:10 10° N
CZ-4B DEB 4.0 20:22:32 17° ESE 20:23:43 22° ENE 20:26:09 10° NNE
Meteor 1-29 3.6 20:21:44 10° NNE 20:24:55 34° E 20:28:05 10° SSE
Cosmos 2242 Rocket 3.7 20:21:02 10° S 20:25:33 81° W 20:30:02 10° N
Lacrosse 4 Rocket 1.6 20:22:40 10° NNW 20:27:02 80° WSW 20:31:26 10° SSE
Cosmos 1408 2.5 20:24:01 10° N 20:27:42 82° E 20:31:19 10° S
Helios 1B rocket 2.5 20:24:43 10° NNE 20:28:45 56° E 20:32:46 10° S
Milstar 3 3.4 20:20:05 10° W 20:28:49 49° SSW 20:33:52 17° ESE
ATLAS 5 CENTAUR R/B 3.1 20:25:34 10° NNW 20:31:16 40° NE 20:35:40 18° ESE
Cosmos 2279 Rocket 3.9 20:27:04 10° S 20:33:17 78° E 20:39:31 10° N
Cosmos 2322 3.8 20:28:17 10° S 20:33:48 53° ESE 20:39:21 10° NNE
SEDSat Delta rocket 3.5 20:29:07 10° W 20:34:00 62° S 20:37:59 19° ESE
ERBS 4.4 20:34:17 10° WNW 20:37:06 23° WSW 20:39:54 10° S
SL-16 R/B 3.6 20:33:50 10° SW 20:39:10 43° WNW 20:44:34 10° N
ERS-1 Rocket 4.0 20:42:02 21° ESE 20:44:00 27° ENE 20:48:12 10° NNE
CZ-2D R/B 4.3 20:41:02 10° S 20:44:47 46° W 20:48:32 10° NNW
Sakura Rocket 3.6 20:42:00 10° SW 20:45:18 31° S 20:46:24 27° SE
Resurs 01 Rocket 3.0 20:44:07 10° SSW 20:48:15 38° W 20:52:26 10° NNW
Centaur AC-42 4.1 20:24:48 10° W 20:49:19 34° SSW 20:53:32 18° SSE
Cosmos 1428 Rocket 4.4 20:43:38 10° N 20:49:45 78° E 20:55:34 11° S
NOSS 3-1 (C) 4.0 20:54:38 24° SE 20:56:30 30° ESE 21:01:40 10° NE
Cosmos 2333 Rocket 3.9 21:00:04 15° ENE 21:00:04 15° ENE 21:01:46 10° ENE
YAOGAN 6 3.2 20:58:12 35° E 20:58:28 36° ENE 21:01:48 10° N
SPOT 5 4.3 20:59:59 19° ENE 21:00:17 19° ENE 21:03:34 10° NNE
Cosmos 1844 Rocket 4.1 20:57:16 10° N 21:01:24 21° ENE 21:02:44 19° ENE
Cosmos 1908 Rocket 3.7 20:57:31 10° N 21:01:46 52° E 21:02:58 39° SE
USA 229 DEB 3.6 20:55:33 10° SSW 21:02:22 90° ESE 21:09:19 10° NNE
USA 229 3.6 20:55:40 10° SSW 21:02:28 89° SE 21:09:25 10° NNE
Cosmos 1933 4.4 21:00:26 10° SSW 21:04:19 46° W 21:08:12 10° N
OAO 3 Rocket 3.2 21:01:08 10° W 21:05:59 70° SSW 21:07:40 40° ESE
Sich 1 Rocket 3.6 21:03:45 10° N 21:08:13 64° E 21:09:37 41° SE
Meteor 2-10 Rocket 3.9 21:07:03 10° SSW 21:12:51 77° W 21:18:39 10° N
Cosmos 1782 Rocket 3.9 21:12:12 10° N 21:16:23 43° E 21:16:24 43° E
Cosmos 1733 Rocket 4.5 21:14:17 10° NNW 21:18:22 37° W 21:22:18 11° SSW
Helios 1A 4.2 21:15:37 16° SSW 21:18:37 40° W 21:22:38 10° NNW
Cosmos 2219 Rocket 2.8 21:20:01 34° E 21:20:01 34° E 21:24:20 10° NE
Okean 1-7 3.0 21:21:00 58° ESE 21:21:12 59° E 21:25:33 10° NNE
Cosmos 1782 4.3 21:30:21 25° NE 21:30:21 25° NE 21:32:21 10° NNE
Okean 2 Rocket 3.7 21:27:08 10° N 21:30:55 43° ENE 21:30:55 43° ENE
Cosmos 1939 Rocket 4.4 21:39:18 24° SW 21:40:46 31° W 21:44:21 10° NW
Nimbus 7 Rocket 4.4 21:37:14 10° NNE 21:43:06 57° ESE 21:43:21 56° ESE
Terra 3.9 21:45:02 15° NE 21:45:02 15° NE 21:46:37 10° NNE
Cosmos 2263 Rocket 3.6 21:38:59 10° NW 21:43:49 31° WSW 21:46:54 19° SSW
Cosmos 968 Rocket 4.1 21:42:42 10° NNW 21:47:44 51° WSW 21:49:07 40° SSW
MetOp-B 4.0 21:59:17 76° SW 21:59:36 79° WSW 22:04:59 10° NNW
Cosmos 2360 Rocket 4.5 21:55:53 10° WSW 22:00:17 23° WNW 22:04:45 10° N
USA 234 3.1 21:59:28 63° SE 22:00:40 88° NE 22:07:14 10° NW
Atlas Centaur 2 2.8 21:54:23 10° W 22:01:18 62° S 22:02:01 59° SSE
COSMOS 2428 3.5 21:56:50 10° SW 22:02:20 50° WNW 22:07:52 10° N
Meteor 1-10 Rocket 4.2 22:06:13 76° SSW 22:06:42 85° W 22:12:35 10° N
H-2A R/B 2.7 22:09:09 43° NNE 22:09:09 43° NNE 22:12:44 10° N
MOS 1-B Rocket 3.7 22:09:36 86° SSE 22:09:45 90° W 22:15:25 10° NNW
NOAA 11 4.5 22:10:51 57° WSW 22:11:16 59° W 22:16:41 10° NNW
NOSS 0 Rocket 4.0 22:16:18 64° NE 22:16:18 64° NE 22:21:28 10° NNE
ATLAS 5 CENTAUR R/B 3.6 22:10:24 10° NW 22:15:57 34° WSW 22:17:14 31° SW
Cosmos 1844 3.9 22:11:39 10° NNW 22:16:28 61° NNE 22:16:28 61° NNE
ARGOS 3.4 22:19:00 66° WNW 22:19:00 66° WNW 22:23:58 10° NNW
Cosmos 1570 Rocket 4.5 22:22:48 58° NW 22:22:48 58° NW 22:27:24 10° N
ERS-1 Rocket 4.5 22:22:02 28° WSW 22:22:39 28° W 22:26:58 10° NW
SeaSat 1 3.2 22:24:45 48° N 22:24:45 48° N 22:28:20 10° NNW
H-2A R/B 4.1 22:31:00 23° N 22:31:00 23° N 22:32:43 10° N
SPOT 5 4.3 22:39:14 32° WNW 22:39:14 32° WNW 22:42:26 10° NNW
Cosmos 2237 Rocket 3.1 22:40:20 43° N 22:40:20 43° N 22:44:07 10° NNE
Cosmos 1553 Rocket 4.2 22:41:44 67° NNW 22:41:44 67° NNW 22:47:14 10° N
Cosmos 2333 Rocket 2.9 22:41:57 52° WNW 22:41:57 52° WNW 22:47:23 10° N
Cosmos 1844 Rocket 3.6 22:40:11 10° NNW 22:44:25 41° WNW 22:44:25 41° WNW
Cosmos 2278 Rocket 3.1 22:41:38 10° NNW 22:45:29 43° N 22:45:29 43° N
CZ-4C R/B 3.1 22:50:18 10° NNW 22:57:01 66° NNE 22:57:01 66° NNE
Cosmos 2219 Rocket 4.0 23:01:36 23° W 23:03:13 27° WNW 23:07:55 10° N
ATLAS 2AS CENTAUR R/B 4.1 23:08:09 31° NE 23:08:09 31° NE 23:12:09 10° NE
Terra 4.1 23:23:55 21° NW 23:23:55 21° NW 23:25:36 10° NNW
ATLAS 3B R/B 4.2 23:30:12 10° N 23:35:09 26° NE 23:35:09 26° NE
